Regional Weather Roundup
Issued by NWS

Home | Current Version | Previous Version | Text Only | Print | Product List | Glossary On
Versions: 1 2 3 4 5 6 7 8 9 10 11 12 13 14 15 16 17 18 19 20 21 22 23 24 25 26 27 28 29 30 31 32 33 34 35 36 37 38 39 40 41 42 43 44 45 46 47 48 49 50
000
ASUS43 KTOP 300708
RWRKS

WEATHER ROUNDUP FOR KANSAS
NATIONAL WEATHER SERVICE GOODLAND KS
200 AM CDT MON MAY 30 2016

NOTE:  "FAIR" INDICATES FEW OR NO CLOUDS BELOW 12,000 FEET WITH NO
SIGNIFICANT WEATHER AND/OR OBSTRUCTIONS TO VISIBILITY.

KSZ001>006-013>018-027>032-041>047-300800-
NORTHWEST KANSAS

CITY           SKY/WX    TMP DP  RH WIND       PRES   REMARKS
GOODLAND       CLOUDY    58  50  75 NE5       30.11R
HAYS           PTCLDY    61  52  72 SE5       30.02F
HILL CITY      CLOUDY    60  53  77 NW9       30.04R
$$

KSZ061>065-074>080-084>089-300800-
SOUTHWEST KANSAS

CITY           SKY/WX    TMP DP  RH WIND       PRES   REMARKS
DODGE CITY     CLOUDY    58  51  78 S12       30.08R
ELKHART          N/A     55  50  83 W5          N/A
GARDEN CITY    CLOUDY    54  49  83 W9        30.08F
GREAT BEND     MOCLDY    63  54  72 CALM      30.04S
LIBERAL        CLOUDY    54  45  71 CALM      30.09F
PRATT          MOCLDY    61  51  70 CALM      30.04S
$$

KSZ066>073-081>083-090>101-300800-
SOUTHEAST KANSAS

CITY           SKY/WX    TMP DP  RH WIND       PRES   REMARKS
CHANUTE        CLEAR     66  64  93 SE5       30.04F
COFFEYVILLE    CLOUDY    65  63  93 NE3       30.04F
HUTCHINSON     MOCLDY    64  58  80 E3        30.03F
MEDICINE LODGE   N/A     63  60  90 CALM      30.02S
NEWTON         PTCLDY    61  55  82 CALM      30.07S
PARSONS        CLOUDY    65  64  97 E3        30.05F
WICHITA INTL   MOCLDY    67  61  81 E6        30.03F
WICHITA JABRA  PTCLDY    62  60  93 S5        30.04F
WICHITA MCCONL CLEAR     64  61  88 E3        30.04F
WINFIELD       CLOUDY    69  62  78 E3        30.05S
$$

KSZ007>012-019>026-033>040-048>060-102>105-300800-
NORTHEAST KANSAS

CITY           SKY/WX    TMP DP  RH WIND       PRES   REMARKS
CONCORDIA      CLEAR     63  59  87 S8        30.01F
EMPORIA        CLOUDY    63  62  97 CALM      30.04F
LAWRENCE       MOCLDY    62  61  96 CALM      30.03F
MANHATTAN      PTCLDY    61  59  93 CALM      30.02F
MARYSVILLE     CLOUDY    63  59  88 SE3       30.01F
OLATHE IND     PTCLDY    65  61  87 S5        30.04F
OLATHE EXE     CLEAR     67  60  78 CALM      30.04F
SALINA         CLOUDY    66  61  84 CALM      30.02F
TOPEKA BILLARD CLOUDY    65  64  97 CALM      30.03F
TOPEKA FORBES  MOCLDY    64  62  93 CALM      30.04F
$$




USA.gov is the U.S. government's official web portal to all federal, state and local government web resources and services.